GPS BIIF-6 (PRN 06)

Last updated on Thu Aug 20 2026 00:03:18 GMT+0000 (Coordinated Universal Time)

1 39741U 14026A 26231.28342497 -.00000108 00000+0 00000+0 0 9998 2 39741 56.4629 329.0606 0038634 324.7332 35.0470 2.00556524 89805
UTC large
Height (km)
Speed (km/s)
/
Latitude / Longitude
Inclination (degrees)
Orbital Period (minutes)
Azimuth
Elevation
Range (km)
Doppler Factor

Next 0 passes for location: London (51.5072 / 0.1276)

No passes found over London.
GPS BIIF-6 (PRN 06)